Alexandria, MN

12:40 AM CST on November 23, 2017 (GMT -0600)
Chandler

Weather History for KAXN - March, 2012

Change the Weather History Date:

Wednesday, March 14, 2012

  Actual Average Record
Temperature  
Mean Temperature 50 °F -  
Max Temperature 61 °F 36 °F 65 °F (1981)
Min Temperature 39 °F 18 °F -10 °F (1956)
Degree Days  
Heating Degree Days 16    
Moisture  
Dew Point 33 °F    
Average Humidity 54    
Maximum Humidity 93    
Minimum Humidity 23    
Precipitation  
Precipitation 0.00 in - - ()
Sea Level Pressure  
Sea Level Pressure 29.83 in    
Wind  
Wind Speed 13 mph (NNW)    
Max Wind Speed 18 mph    
Max Gust Speed 26 mph    
Visibility 10 miles    
Events      
Averages and records for this station are not official NWS values.
T = Trace of Precipitation, MM = Missing Value Source: NWS Daily Summary

Daily Weather History Graph

Daily Weather History Graph

Search for Another Location

Airport or City:

Trip Planner

Search our weather history database for the weather conditions in past years. The results will help you decide how hot, cold, wet, or windy it might be!

Date:

Astronomy

Mar. 14, 2012 Rise Set
Actual Time 7:35 AM CDT 7:26 PM CDT
Civil Twilight 7:05 AM CDT 7:56 PM CDT
Nautical Twilight 6:30 AM CDT 8:31 PM CDT
Astronomical Twilight 5:55 AM CDT 9:06 PM CDT
Moon 2:24 AM CDT (3/14) 11:25 AM CDT (3/14)
Length of Visible Light 12h 51m
Length of Day
11h 51m
Waning Gibbous, 54% of the Moon is Illuminated
Mar 14
Waning Gibbous
Mar 14
Last Quarter
Mar 22
New
Mar 30
First Quarter
Apr 6
Full

Hourly Weather History & Observations

Time (CDT) Temp. Windchill Dew Point Humidity Pressure Visibility Wind Dir Wind Speed Gust Speed Precip Events Conditions
12:53 AM 54.0 °F - 45.0 °F 72% 29.71 in 10.0 mi South 17.3 mph - N/A   Clear
1:53 AM 55.0 °F - 46.0 °F 72% 29.69 in 10.0 mi South 18.4 mph 26.5 mph N/A   Clear
2:53 AM 55.4 °F - 46.4 °F 72% 29.66 in 10.0 mi South 18.4 mph - N/A   Clear
3:53 AM 53.1 °F - 45.0 °F 74% 29.66 in 10.0 mi South 12.7 mph - N/A   Clear
4:53 AM 51.1 °F - 45.0 °F 80% 29.65 in 10.0 mi SSE 11.5 mph - N/A   Clear
5:53 AM 48.9 °F - 44.1 °F 83% 29.66 in 10.0 mi South 8.1 mph - N/A   Clear
6:53 AM 43.0 °F 38.8 °F 41.0 °F 93% 29.71 in 10.0 mi SW 6.9 mph - N/A   Clear
7:53 AM 45.0 °F 41.8 °F 43.0 °F 93% 29.72 in 7.0 mi SW 5.8 mph - N/A   Clear
8:53 AM 48.9 °F - 42.1 °F 77% 29.76 in 10.0 mi NW 11.5 mph 19.6 mph N/A   Clear
9:53 AM 53.1 °F - 37.0 °F 55% 29.80 in 10.0 mi North 16.1 mph 24.2 mph N/A   Clear
10:53 AM 57.0 °F - 34.0 °F 42% 29.83 in 10.0 mi North 13.8 mph 19.6 mph N/A   Clear
11:53 AM 57.9 °F - 30.0 °F 35% 29.83 in 10.0 mi North 15.0 mph 24.2 mph N/A   Clear
12:53 PM 57.0 °F - 30.9 °F 37% 29.86 in 10.0 mi North 13.8 mph - N/A   Clear
1:53 PM 57.9 °F - 26.1 °F 30% 29.87 in 10.0 mi North 15.0 mph - N/A   Clear
2:53 PM 57.9 °F - 24.1 °F 27% 29.87 in 10.0 mi NNW 12.7 mph 20.7 mph N/A   Clear
3:53 PM 60.1 °F - 21.9 °F 23% 29.88 in 10.0 mi NNW 11.5 mph 18.4 mph N/A   Clear
4:53 PM 57.9 °F - 23.0 °F 26% 29.91 in 10.0 mi NW 11.5 mph - N/A   Clear
5:53 PM 57.0 °F - 21.9 °F 26% 29.93 in 10.0 mi NNW 11.5 mph - N/A   Clear
6:53 PM 53.1 °F - 23.0 °F 31% 29.95 in 10.0 mi NNW 8.1 mph - N/A   Clear
7:53 PM 46.9 °F - 25.0 °F 42% 29.96 in 10.0 mi NNW 6.9 mph - N/A   Clear
8:53 PM 45.0 °F 41.2 °F 25.0 °F 46% 29.97 in 10.0 mi NNW 6.9 mph - N/A   Clear
9:53 PM 42.1 °F 37.7 °F 26.1 °F 53% 29.98 in 10.0 mi North 6.9 mph - N/A   Clear
10:53 PM 39.9 °F 34.5 °F 26.1 °F 58% 29.99 in 10.0 mi North 8.1 mph - N/A   Clear
11:53 PM 42.1 °F 35.7 °F 25.0 °F 51% 30.01 in 10.0 mi North 11.5 mph - N/A   Clear